Other Public Products
Issued by NWS Charleston, SC

Current Version | Previous Version | Graphics & Text | Print | Product List | Glossary On
Versions: 1 2 3 4 5 6 7 8 9 10 11 12 13 14 15 16 17 18 19 20 21 22 23 24 25 26 27 28 29 30 31 32 33 34 35 36 37 38 39 40 41 42 43 44 45 46 47 48 49 50
000
FPUS82 KCHS 221628
OPUCHS

TEST...KCHS/KSAV Gateway Observations...TEST
National Weather Service Charleston SC
1200 PM EDT MON MAY 22 2017

NOTE: "fair" indicates few or no clouds below 12,000 feet with no
significant weather and/or obstructions to visibility.

SCZ050-WAZ558-NCZ071-TXZ119-213-PAZ071-DCZ001-FLZ074-172-MI076-
NYZ176-178-MAZ016-IL014-TNZ027-NJZ106-GAZ044-MD014-221700-

...Gateway Observations for Charleston International...

CITY           SKY/WX    TMP DP  RH WIND       PRES   REMARKS
Chas Airport   CLOUDY    82  70  66 SW8       30.05F
Seattle        PTSUNNY   67  54  63 N6        30.17S
Charlotte      PTSUNNY   76  66  71 VRB7      30.07F
Dallas DFW     CLOUDY    71  60  68 E10       30.06F
Dallas Love    CLOUDY    71  58  63 E12       30.07F
Philladelphia  LGT RAIN  61  58  90 E3        30.05F
Wash National  CLOUDY    63  61  93 S3        30.05F
Baltimore      LGT RAIN  61  61 100 CALM      30.05S
Miami          MOSUNNY   87  68  52 E10       30.08F HX  90
Detroit        MOSUNNY   61  44  53 W20G25    30.02R
Newark         CLOUDY    56  56 100 E6        30.08F FOG
Laguardia      LGT RAIN  59  54  83 E8        30.09S
J F K          RAIN      57  57 100 E14       30.10F FOG
Boston Logan   LGT RAIN  50  44  80 E6        30.18F
Ft. Lauderdale MOSUNNY   85  67  54 SE10      30.07F
Chicago O`Hare MOSUNNY   63  43  48 SW14G20   29.99F
Chicago Midway SUNNY     63  45  51 SW15      30.02F
Houston Bush   LGT RAIN  76  73  91 S6        29.95S
Houston Hobby  LGT RAIN  74  72  93 SE21G29   29.92F
Nashville      CLOUDY    68  48  48 E8        30.15F
Atlanta        PTSUNNY   75  68  78 SE3       30.06F

$$

GAZ044-118-TXZ119-213-NCZ071-DCZ001-MDZ014-506-PAZ021-071-NJZ106-
NYZ176-178-MAZ106-OHZ011-021-055-MIZ076-KYZ091-ILZ014-INZ047-
MNZ060-ONZ431-221700-

...Gateway Observations for Savannah International...

CITY           SKY/WX    TMP DP  RH WIND       PRES   REMARKS
Savannah Arpt  PTSUNNY   86  68  54 S6        30.05F
Atlanta        PTSUNNY   75  68  78 SE3       30.06F
Charlotte      PTSUNNY   76  66  71 VRB7      30.07F
Dallas DFW     CLOUDY    71  60  68 E10       30.06F
Houston Bush   LGT RAIN  76  73  91 S6        29.95S
Wash National  CLOUDY    63  61  93 S3        30.05F
Wash Dulles    CLOUDY    62  59  90 SW5       30.05F
Baltimore      LGT RAIN  61  61 100 CALM      30.05S
Philadelphia   LGT RAIN  61  58  90 E3        30.05F
Newark         CLOUDY    56  56 100 E6        30.08F FOG
Laguardia      LGT RAIN  59  54  83 E8        30.09S
J F K          RAIN      57  57 100 E14       30.10F FOG
Boston         LGT RAIN  50  44  80 E6        30.18F
Pittsburg      PTSUNNY   61  49  64 W14G21    30.05R
Akron          PTSUNNY   59  43  55 W12G22    30.08R
Cleveland      CLOUDY    61  43  51 W16G24    30.09R
Cincinnati     PTSUNNY   63  43  48 NW13      30.14F
Columbus       PTSUNNY   60  44  54 NW9       30.12S
Detroit        MOSUNNY   61  44  53 W20G25    30.02R
Chicago O`Hare MOSUNNY   63  43  48 SW14G20   29.99F
Minneapolis    MOSUNNY   59  42  53 W17G25    29.86F
Indianapolis   PTSUNNY   62  46  55 W5        30.11F
Toronto Canada PTSUNNY   59  46  63 W17       29.91S

$$




USA.gov is the U.S. government's official web portal to all federal, state and local government web resources and services.